20h45 EDT


 

Suivi/Infos de l'aéroport


-ou-


 

Suivi des vols en temps réelTradewind #111

Thumbnail
Tradewind 111
GPD111 · "Goodspeed" (tous les vols)
Teterboro ()
Nantucket Memorial ()
18h50 EDT
19h32 EDT
Prévu: 19h00 EDT
Prévu: 20h19 EDT
Durée: 41 minutes
vendredi, 1 août 2014
Statut A atterri il y a plus d'une heure. (journal de vol & graphique)
Avion Pilatus PC-12 (monoturbopropulseur) (PC12 – photos)
Vitesse Plan de vol: 139 kts (graphique)
Altitude Plan de vol: 11.500 Pieds (graphique)
Distance En ligne droite 339 km    Prévue 339 km    Parcourue 776 km
Route HTO317015 (Décoder)
JOURNAL DE L'ACTIVITE
Vous voulez une recherche complète sur l'historique de GPD111 depuis 1998? Achetez maintenant. Recevez-le dans l'heure.
Date Avion Provenance Destination Départ Arrivée Durée
01-08-2014 PC12Teterboro ()Nantucket Memorial () 18h50 EDT 19h32 EDT 0:41
01-08-2014 UnknownNantucket Memorial ()Teterboro () 17h17 EDT 18h09 EDT (?) 0:52
01-08-2014 PC12Teterboro ()Nantucket Memorial () 15h59 EDT 16h50 EDT 0:50
01-08-2014 PC12Nantucket Memorial ()Teterboro () 13h52 EDT 14h49 EDT 0:57
01-08-2014 PC12Teterboro ()Nantucket Memorial () 12h48 EDT 13h33 EDT 0:44
01-08-2014 PC12Nantucket Memorial ()Teterboro () 11h38 EDT 12h07 EDT 0:28
01-08-2014 PC12Près de Bridgeport, CTNantucket Memorial () 14h11 UTC 10h53 EDT 0:41
01-08-2014 PC12/GWaterbury-Oxford ()Teterboro () 09h02 EDT 09h34 EDT (?) 0:32
31-07-2014 PC12/LMartha's Vineyard ()Waterbury-Oxford () 20h05 EDT 20h35 EDT 0:29
31-07-2014 PC12/LBlock Island State ()Martha's Vineyard () 18h59 EDT 19h38 EDT (?) 0:38
31-07-2014 PC12/LMartha's Vineyard ()Westchester County () 16h30 EDT 17h11 EDT 0:41
31-07-2014 PC12/LWestchester County ()Martha's Vineyard () 15h05 EDT 15h43 EDT 0:37
31-07-2014 PC12Martha's Vineyard ()Waterbury-Oxford () 02h18 EDT 11h57 EDT (?) 9:38
30-07-2014 PC12/LMartha's Vineyard ()Waterbury-Oxford () 21h43 EDT 22h12 EDT (?) 0:29
30-07-2014 PC12/LInt'l Newark Liberty ()Martha's Vineyard () 20h33 EDT 21h18 EDT 0:45
30-07-2014 PC12/LNantucket Memorial ()Int'l Newark Liberty () 17h09 EDT 18h22 EDT 1:13
30-07-2014 PC12/LMorristown Muni ()Nantucket Memorial () 15h28 EDT 16h25 EDT 0:56
30-07-2014 PC12/LWaterbury-Oxford ()Morristown Muni () 13h17 EDT 13h36 EDT (?) 0:19
28-07-2014 PC12/LWestchester County ()Waterbury-Oxford () 15h57 EDT 16h33 EDT (?) 0:36
28-07-2014 PC12/QMuskoka ()Westchester County () 13h39 EDT 15h12 EDT 1:33
28-07-2014 PC12/LWestchester County ()Muskoka () 11h44 EDT 13h10 EDT 1:25
28-07-2014 PC12Nantucket Memorial ()Westchester County () 09h57 EDT 10h51 EDT 0:54
28-07-2014 PC12/LWestchester County ()Nantucket Memorial () 08h34 EDT 09h27 EDT 0:53
28-07-2014 PC12/LNantucket Memorial ()Westchester County () 06h37 EDT 07h39 EDT 1:02
28-07-2014 PC12/LWaterbury-Oxford ()Nantucket Memorial () 05h03 EDT 05h50 EDT 0:47
27-07-2014 PC12/LMorristown Muni ()Waterbury-Oxford () 21h16 EDT 21h36 EDT (?) 0:19
27-07-2014 PC12Nantucket Memorial ()Morristown Muni () 19h52 EDT 20h48 EDT 0:56
27-07-2014 PC12/LWestchester County ()Nantucket Memorial () 18h06 EDT 18h54 EDT 0:47
27-07-2014 PC12/LNantucket Memorial ()Westchester County () 16h44 EDT 17h35 EDT 0:51
27-07-2014 PC12Lebanon Muni ()Provincetown Muni () 12h55 EDT 13h48 EDT 0:53
27-07-2014 PC12/LWaterbury-Oxford ()Lebanon Muni () 11h55 EDT 12h32 EDT 0:37
26-07-2014 UnknownWestchester County ()Waterbury-Oxford () 22h36 EDT 22h54 EDT (?) 0:18
27-07-2014 UnknownPrès de Atlantic City, NJWestchester County () 01h29 UTC 22h02 EDT (-1) 0:33
26-07-2014 PC12Westchester County ()Atlantic City Intl () 07h34 EDT 08h09 EDT 0:35
25-07-2014 PC12/GMartha's Vineyard ()Waterbury-Oxford () 20h50 EDT 21h20 EDT 0:30
25-07-2014 PC12/GWestchester County ()Martha's Vineyard () 19h13 EDT 19h52 EDT 0:39
25-07-2014 PC12/GNantucket Memorial ()Westchester County () 15h38 EDT 16h24 EDT 0:46
25-07-2014 PC12/GWaterbury-Oxford ()Morristown Muni () 11h40 EDT 11h58 EDT (?) 0:17
24-07-2014 PC12Nantucket Memorial ()Waterbury-Oxford () 20h02 EDT 20h41 EDT 0:39
24-07-2014 PC12/GNantucket Memorial ()Westchester County () 17h10 EDT 18h00 EDT 0:50
24-07-2014 PC12/LGroton-New London ()Nantucket Memorial () 16h07 EDT 16h39 EDT 0:32
24-07-2014 PC12/GNantucket Memorial ()Westchester County () 10h59 EDT 11h45 EDT 0:46
24-07-2014 PC12/GGroton-New London ()Nantucket Memorial () 09h36 EDT 09h56 EDT (?) 0:19
24-07-2014 PC12R HTO 334 17Nantucket Memorial () 13h23 UTC 10h11 EDT 0:48
23-07-2014 PC12/GNantucket Memorial ()Westchester County () 18h04 EDT 18h51 EDT 0:47
23-07-2014 PC12/GInt'l Logan ()Nantucket Memorial () 16h02 EDT 16h29 EDT 0:27
23-07-2014 PC12/GWestchester County ()Int'l Logan () 14h04 EDT 14h57 EDT 0:53
23-07-2014 PC12/GNantucket Memorial ()Westchester County () 10h23 EDT 11h11 EDT 0:48
23-07-2014 PC12/GWestchester County ()Nantucket Memorial () 09h16 EDT 09h58 EDT 0:41
23-07-2014 PC12/GMartha's Vineyard ()Westchester County () 07h01 EDT 07h45 EDT 0:44
22-07-2014 PC12Près de Bridgeport, CTMartha's Vineyard () 22h33 UTC 19h14 EDT 0:40
22-07-2014 PC12/GMartha's Vineyard ()Westchester County () 17h27 EDT 18h05 EDT 0:38
22-07-2014 PC12/GWestchester County ()Martha's Vineyard () 16h31 EDT 17h08 EDT 0:37
22-07-2014 PC12/GKnox County Rgnl ()Westchester County () 11h05 EDT 12h13 EDT 1:08
22-07-2014 PC12Laurence G Hanscom Fld ()Knox County Rgnl () 09h21 EDT 10h03 EDT 0:42
22-07-2014 PC12/GWaterbury-Oxford ()Laurence G Hanscom Fld () 07h11 EDT 07h39 EDT 0:28
21-07-2014 PC12Nantucket Memorial ()Westchester County () 09h29 EDT 10h19 EDT 0:50
21-07-2014 PC12/GWestchester County ()Nantucket Memorial () 07h51 EDT 08h42 EDT 0:51
21-07-2014 PC12/GNantucket Memorial ()Westchester County () 06h23 EDT 07h13 EDT 0:50
21-07-2014 PC12/GWaterbury-Oxford ()Nantucket Memorial () 04h57 EDT 05h58 EDT 1:01
20-07-2014 PC12Martha's Vineyard ()Teterboro () 20h30 EDT 21h24 EDT 0:54
20-07-2014 PC12/LGroton-New London ()Martha's Vineyard () 19h15 EDT 19h44 EDT (?) 0:29
20-07-2014 PC12/LMartha's Vineyard ()Westchester County () 17h37 EDT 18h25 EDT 0:47
20-07-2014 PC12Laurence G Hanscom Fld ()Martha's Vineyard () 15h55 EDT 16h23 EDT 0:28
20-07-2014 PC12/TNewport State ()Westchester County () 12h37 EDT 13h10 EDT 0:33
19-07-2014 PC12/LSussex County ()Waterbury-Oxford () 19h31 EDT 20h14 EDT 0:42
19-07-2014 PC12/LNantucket Memorial ()Sussex County () 17h18 EDT 18h24 EDT 1:06
19-07-2014 PC12/LDoylestown ()Martha's Vineyard () 12h10 EDT 12h30 EDT (?) 0:20
19-07-2014 PC12Doylestown ()Martha's Vineyard () 11h45 EDT 13h04 EDT 1:18
19-07-2014 PC12/LWaterbury-Oxford ()Doylestown () 10h32 EDT 11h04 EDT (?) 0:31
18-07-2014 PC12Cape Cod Coast Guard Air Station ()Waterbury-Oxford () 20h31 EDT 21h00 EDT (?) 0:29
18-07-2014 UnknownR BDR 115 12Martha's Vineyard () 23h20 UTC 19h48 EDT 0:28
Les membres inscrits (l'inscription est gratuite et facile!) voient 4 months d'historique. S'inscrire